{"data":{"norad_id":61551,"epoch":"2026-09-21T11:35:25.640160Z","epoch_age_seconds":107235,"freshness":"FRESH","line1":"1 61551U 24184V   26264.48293565 -.00005932  00000+0 -16452-3 0  9990","line2":"2 61551  53.1582 180.9750 0000763 105.5870 254.5217 15.34410261108536","mean_motion":15.34410261,"eccentricity":7.63e-5,"inclination_deg":53.1582,"raan_deg":180.975,"arg_perigee_deg":105.587,"mean_anomaly_deg":254.5217,"bstar":-0.00016452,"rev_number":10853,"period_min":93.847130496998,"perigee_km":462.1507887393,"apogee_km":463.19469630601,"semimajor_km":6840.8097425227,"source":"CELESTRAK","updated_at":"2026-09-22T09:00:49.389456Z"}}